Regional Weather Roundup
Issued by NWS Albany, NY

Home | Current Version | Previous Version | Text Only | Print | Product List | Glossary On
Versions: 1 2 3 4 5 6 7 8 9 10 11 12 13 14 15 16 17 18 19 20 21 22 23 24 25 26 27
000
ASUS41 KALY 271910
RWRALY

NEW YORK STATE HOURLY WEATHER ROUNDUP
NATIONAL WEATHER SERVICE ALBANY NY
300 PM EDT TUE JUN 27 2017

NOTE: "FAIR" INDICATES FEW OR NO CLOUDS BELOW 12,000 FEET WITH NO
SIGNIFICANT WEATHER AND/OR NO OBSTRUCTIONS TO VISIBILITY.

NYZ032-033-038>043-046>054-057>066-NYZ062>081-082-084-272000-
EAST


CITY           SKY/WX    TMP DP  RH WIND       PRES   REMARKS
ALBANY         PTSUNNY   69  54  58 SE3       29.90F THUNDER
GLENS FALLS    PTSUNNY   66  50  56 S12       29.90F
POUGHKEEPSIE   SUNNY     74  52  46 W6        29.90F
NEWBURGH       MOSUNNY   75  55  50 W16       29.93F
MONTGOMERY     MOSUNNY   76  50  40 SW14      29.91F
WHITE PLAINS   MOSUNNY   75  51  43 SW9G20    29.93F
ISLIP          MOSUNNY   75  60  59 S10       29.93F
NEW YORK CITY  MOSUNNY   78  54  43 SW10      29.92F
CENTRAL PARK   MOSUNNY   76  57  51 VRB3      29.95F
$$

NYZ005>009-017-018-044>046-055-056-272000-
CENTRAL


CITY           SKY/WX    TMP DP  RH WIND       PRES   REMARKS
FULTON         MOSUNNY   64  53  67 W8G20     29.94F
SYRACUSE       CLOUDY    62  53  72 W9        29.95F
ROME           LGT RAIN  55  52  89 SW8       29.97R
ELMIRA         PTSUNNY   65  52  62 NW12      29.96F
BINGHAMTON     PTSUNNY   56  51  84 N10       29.96F
MONTICELLO     PTSUNNY   66  54  63 W7        29.95F
$$

NYZ026>034-041>043-087-272000-
NORTH


CITY           SKY/WX    TMP DP  RH WIND       PRES   REMARKS
WATERTOWN      MOSUNNY   64  53  67 W18G25    29.92S
FORT DRUM      NOT AVBL
OGDENSBURG     FAIR      63  54  73 SW3       29.89F
MASSENA        PTSUNNY   66  56  70 SW7       29.89F
SARANAC LAKE   CLOUDY    59  51  75 SE8       29.88F
PLATTSBURGH    CLOUDY    58  53  84 N3        29.91S
$$

NYZ001>004-010>016-019>021-085-272000-
WEST


CITY           SKY/WX    TMP DP  RH WIND       PRES   REMARKS
NIAGARA FALLS  RAIN      60  52  74 W16G24    29.97R
BUFFALO        LGT RAIN  59  52  77 SW14G26   29.98R
DUNKIRK        CLOUDY    62  52  69 W12G23    30.02R
JAMESTOWN      CLOUDY    57  46  67 W13G22    30.03R
WELLSVILLE     MOSUNNY   64  48  56 NW16G22   30.01S
ROCHESTER      MOSUNNY   67  49  52 W17G25    29.94F
PENN YAN       MOSUNNY   65  52  62 W7        29.95F
$$

             KEY
       WCI = WIND CHILL INDEX
       VSB = VISIBILITY
       HX  = HEAT INDEX
$$




USA.gov is the U.S. government's official web portal to all federal, state and local government web resources and services.